Weather Roundup
Issued by NWS

Home | Current Version | Previous Version | Graphics & Text | Print | Product List | Glossary Off
Versions: 1 2 3 4 5 6 7 8 9 10 11 12 13 14 15 16 17 18 19 20 21 22 23 24 25 26 27 28 29 30 31 32 33 34 35 36 37 38 39 40 41 42 43 44 45 46 47 48 49 50

000
NZUS93 KARX 191110
HRRWXR

CURRENT HOURLY OBSERVATIONS ACROSS
MUCH OF THE UPPER MISSISSIPPI VALLEY
NATIONAL WEATHER SERVICE LA CROSSE WI
600 AM CDT TUE SEP 19 2017


...SOUTHEAST MINNESOTA...


CITY           SKY/WX    TMP DP  RH WIND       PRES   REMARKS
ROCHESTER      MOCLDY    57  56  96 SE7       29.94S
ROCHESTER/MAYO CLOUDY    58  57  99 SE8       29.94S
WINONA         CLOUDY    59  57  94 SE5       29.95S
AUSTIN         CLOUDY    57  55  94 SE5       29.93S
ALBERT LEA     CLOUDY    64  64 100 SE5       29.91S FOG
DODGE CENTER   CLOUDY    57  55  94 SE3       29.93S
PRESTON        CLOUDY    56  54  92 SE3       29.95S
OWATONNA       CLOUDY    61  59  94 SE6       29.91S
FARIBAULT      CLOUDY    61  59  94 E3        29.91F
$$

...ELSEWHERE IN MINNESOTA...


CITY           SKY/WX    TMP DP  RH WIND       PRES   REMARKS
MINNEAPOLIS    CLOUDY    60  58  92 SE7       29.92S
INTNL FALLS    CLOUDY    53  51  93 SE6       29.91S
DULUTH         FOG       55  55 100 SE12      29.95F VSB 3/4
RED WING       CLOUDY    59  55  88 E3        29.93R
REDWOOD FALLS  CLOUDY    64  62  93 SE10      29.85S FOG
MANKATO        CLOUDY    62  62 100 SE8       29.90S FOG
WORTHINGTON    CLOUDY    64  64 100 SE7       29.86S
FAIRMONT       CLOUDY    65  64  97 SE9       29.89R FOG
$$

...SOUTHWEST WISCONSIN...


CITY           SKY/WX    TMP DP  RH WIND       PRES   REMARKS
LA CROSSE      CLOUDY    60  58  92 SE6       29.95S
PRAIRIE DU CHI PTCLDY    56  55  94 CALM      29.96R
BOSCOBEL       CLEAR     55  54  96 CALM      29.97R
LONE ROCK      PTCLDY    58  56  93 CALM      29.97R
PLATTEVILLE    CLEAR     57  56  99 E5        29.97S
FORT MC COY    CLOUDY    55  55  98 CALM      29.97F
CAMP DOUGLAS   CLOUDY    57  55  95 E6        29.98S
MAUSTON-NEW LI MOSUNNY   54  54  98 SE3       29.98S
VIROQUA        FAIR      55  55 100 E5        29.97S
WIS DELLS      PTCLDY    55  53  92 NE3       29.98R
$$

...ELSEWHERE IN WISCONSIN...


CITY           SKY/WX    TMP DP  RH WIND       PRES   REMARKS
MILWAUKEE      CLOUDY    65  63  93 N6        29.96S
MADISON        PTCLDY    57  55  93 CALM      29.97S
GREEN BAY      CLOUDY    58  57  97 E5        30.00S
EAU CLAIRE     CLOUDY    58  56  93 E5        29.96R
BLACK RVR FLS  CLOUDY    57  57 100 CALM      29.97S
MEDFORD        CLOUDY    53  51  94 E3        30.00S
WAUSAU         CLOUDY    54  52  93 E6        30.00R
WIS RAPIDS     CLOUDY    58  53  84 E6        30.00S
MARSHFIELD     CLOUDY    55  52  89 E7        30.00R
RICE LAKE      CLOUDY    58  56  95 E6        29.98S
$$

...NORTHEAST IOWA...


CITY           SKY/WX    TMP DP  RH WIND       PRES   REMARKS
WATERLOO       PTCLDY    53  53 100 E3        29.93R FOG
DUBUQUE        PTCLDY    56  55  97 SW3       29.97R
DECORAH        CLEAR     57  55  94 CALM      29.95R
MASON CITY     FOG       61  60  97 SE3       29.93S VSB 1/4
CHARLES CITY   PTCLDY    55  55 100 E7        29.94S FOG
OELWEIN        FOG       57  57 100 SE3       29.95R VSB<1/4
$$

...ELSEWHERE IN IOWA...


CITY           SKY/WX    TMP DP  RH WIND       PRES   REMARKS
DES MOINES     FOG       64  64 100 SE6       29.89S VSB 1/4
IOWA CITY      FOG       64  63  96 E3        29.95S VSB 1/4
FORT DODGE     CLOUDY    64  63  94 SE6       29.89S
MARSHALLTOWN   CLOUDY    60  60 100 SE5       29.92S FOG
CEDAR RAPIDS   FOG       60  60 100 E3        29.93S VSB 1/4
$$

...NORTHERN ILLINOIS...


CITY           SKY/WX    TMP DP  RH WIND       PRES   REMARKS
CHICAGO-OHARE  CLOUDY    66  64  93 N6        29.94R
CHICAGO-MIDWAY CLOUDY    67  65  93 N5        29.94R FOG
MOLINE         CLOUDY    63  61  93 E6        29.95R FOG
ROCKFORD       LGT RAIN  62  60  93 NE7       29.96F
PEORIA         MOCLDY    66  66 100 CALM      29.94R FOG
$$

NOTE: "FAIR" INDICATES FEW OR NO CLOUDS BELOW 12,000 FEET WITH NO
SIGNIFICANT WEATHER AND/OR OBSTRUCTIONS TO VISIBILITY. WIND
SPEEDS ARE IN MILES-PER-HOUR.




USA.gov is the U.S. government's official web portal to all federal, state and local government web resources and services.